{"data":{"norad_id":63243,"intl_designator":"2025-052AK","name":"HERMES-2","alt_names":[],"object_type":"PAYLOAD","status":"ACTIVE","operator":null,"country":"IT","launch_date":"2025-03-15","launch_site_code":"AFWTR","launch_vehicle":null,"mission":null,"orbit_class":"UNKNOWN","rcs_meters":null,"size_class":null,"mass_kg":null,"dimensions":null,"purposes":[],"wikipedia_slug":null,"has_3d_model":false,"image_url":null,"decayed_at":null,"tle_current":{"epoch":"2026-05-24T23:46:13.614240Z","epoch_age_seconds":72227,"freshness":"FRESH","line1":"1 63243U 25052AK  26144.99043535  .00015161  00000+0  53315-3 0  9990","line2":"2 63243  97.3917  40.0464 0004483 169.2548 190.8789 15.29439328 66479","mean_motion":15.29439328,"eccentricity":0.0004483,"inclination_deg":97.3917,"raan_deg":40.0464,"arg_perigee_deg":169.2548,"mean_anomaly_deg":190.8789,"bstar":0.00053315,"rev_number":6647,"period_min":94.152149329326,"perigee_km":474.413863837,"apogee_km":480.56061653075,"semimajor_km":6855.6242401839,"source":"CELESTRAK","updated_at":"2026-05-25T13:38:03.584707Z"}}}